Location: ?ejeti?ky
(50.4060°N, 14.9016°E)
Time: 11:51:13
(UTC+00:00)

N. Korean satellite - Pass Details

Date: 10 December 2021
Orbit: 447 x 490 km, 97.3° (Epoch: 27 January)

Event Time Altitude Azimuth Distance (km) Brightness Sun altitude
Rises 05:03:20 0° 5° (N) 2,465 10.0 -15.9°
Reaches altitude 10° 05:05:30 10° 355° (N) 1,587 8.9 -15.6°
Enters shadow 05:07:42 27° 321° (NW) 890 7.4 -15.2°
Exits shadow 05:10:13 20° 242° (WSW) 1,098 8.0 -14.9°
Drops below altitude 10° 05:11:35 10° 227° (SW) 1,578 8.9 -14.7°
Sets 05:13:44 0° 217° (SW) 2,448 9.9 -14.3°
